Torna al catalogo

ELEVATION-1

AttivoScienzaSSO
NORAD 62677·PAYLOAD·🇬🇧 United Kingdom

Lanciato Jan 14, 2025 da Vandenberg Space Force Base

Loading…

Prossimi Passaggi (prossime 24 ore)

TLE

AggiornatoSource: Space-Track

Epoca: Sep 14, 2026, 11:33 UTC

1 62677U 25009BW  26257.48163781  .00025633  00000-0  51844-3 0  9998
2 62677  97.3753 344.0217 0002814   8.8427 351.2871 15.46437972150606

Traccia ELEVATION-1 in tempo reale con AllMySat

Download on the App Store